site,time,unit,value
Hopton,10/11/2023 00:00:00,MW,3.414161
Hopton,10/11/2023 00:05:00,MW,4.0401173
Hopton,10/11/2023 00:10:00,MW,3.9017498
Hopton,10/11/2023 00:15:00,MW,3.4306755
Hopton,10/11/2023 00:20:00,MW,3.4201138
Hopton,10/11/2023 00:25:00,MW,3.4676695
Hopton,10/11/2023 00:30:00,MW,3.493802
Hopton,10/11/2023 00:35:00,MW,3.4156675
Hopton,10/11/2023 00:40:00,MW,3.2231581
Hopton,10/11/2023 00:45:00,MW,3.7577314
Hopton,10/11/2023 00:50:00,MW,3.189229
Hopton,10/11/2023 00:55:00,MW,3.5271418
Hopton,10/11/2023 01:00:00,MW,3.4157047
Hopton,10/11/2023 01:05:00,MW,3.2792964
Hopton,10/11/2023 01:10:00,MW,3.4737992
Hopton,10/11/2023 01:15:00,MW,2.8784814
Hopton,10/11/2023 01:20:00,MW,3.128067
Hopton,10/11/2023 01:25:00,MW,3.5584903
Hopton,10/11/2023 01:30:00,MW,4.2849507
Hopton,10/11/2023 01:35:00,MW,4.2755485
Hopton,10/11/2023 01:40:00,MW,3.6309233
Hopton,10/11/2023 01:45:00,MW,3.914955
Hopton,10/11/2023 01:50:00,MW,3.8259244
Hopton,10/11/2023 01:55:00,MW,4.196414
Hopton,10/11/2023 02:00:00,MW,3.8683922
Hopton,10/11/2023 02:05:00,MW,4.024783
Hopton,10/11/2023 02:10:00,MW,4.092971
Hopton,10/11/2023 02:15:00,MW,4.1679816
Hopton,10/11/2023 02:20:00,MW,4.4609356
Hopton,10/11/2023 02:25:00,MW,4.2952313
Hopton,10/11/2023 02:30:00,MW,4.8652334
Hopton,10/11/2023 02:35:00,MW,5.4320426
Hopton,10/11/2023 02:40:00,MW,4.402889
Hopton,10/11/2023 02:45:00,MW,3.9226484
Hopton,10/11/2023 02:50:00,MW,4.1198025
Hopton,10/11/2023 02:55:00,MW,4.3827853
Hopton,10/11/2023 03:00:00,MW,4.740202
Hopton,10/11/2023 03:05:00,MW,4.612031
Hopton,10/11/2023 03:10:00,MW,4.370225
Hopton,10/11/2023 03:15:00,MW,4.60475
Hopton,10/11/2023 03:20:00,MW,4.1267924
Hopton,10/11/2023 03:25:00,MW,3.986706
Hopton,10/11/2023 03:30:00,MW,4.8379693
Hopton,10/11/2023 03:35:00,MW,4.8451505
Hopton,10/11/2023 03:40:00,MW,4.945676
Hopton,10/11/2023 03:45:00,MW,4.51178
Hopton,10/11/2023 03:50:00,MW,4.819789
Hopton,10/11/2023 03:55:00,MW,4.6121426
Hopton,10/11/2023 04:00:00,MW,4.5627356
Hopton,10/11/2023 04:05:00,MW,5.335751
Hopton,10/11/2023 04:10:00,MW,5.6481276
Hopton,10/11/2023 04:15:00,MW,5.648253
Hopton,10/11/2023 04:20:00,MW,4.553764
Hopton,10/11/2023 04:25:00,MW,4.1111097
Hopton,10/11/2023 04:30:00,MW,2.7927048
Hopton,10/11/2023 04:35:00,MW,3.1674986
Hopton,10/11/2023 04:40:00,MW,2.8276057
Hopton,10/11/2023 04:45:00,MW,2.5914378
Hopton,10/11/2023 04:50:00,MW,2.271538
Hopton,10/11/2023 04:55:00,MW,1.7104268
Hopton,10/11/2023 05:00:00,MW,1.7985754
Hopton,10/11/2023 05:05:00,MW,2.156427
Hopton,10/11/2023 05:10:00,MW,2.5851562
Hopton,10/11/2023 05:15:00,MW,2.4689708
Hopton,10/11/2023 05:20:00,MW,2.4845562
Hopton,10/11/2023 05:25:00,MW,2.5587714
Hopton,10/11/2023 05:30:00,MW,2.3374233
Hopton,10/11/2023 05:35:00,MW,1.9269862
Hopton,10/11/2023 05:40:00,MW,2.3401022
Hopton,10/11/2023 05:45:00,MW,2.3079548
Hopton,10/11/2023 05:50:00,MW,2.097825
Hopton,10/11/2023 05:55:00,MW,2.3895004
Hopton,10/11/2023 06:00:00,MW,2.7465477
Hopton,10/11/2023 06:05:00,MW,3.4648793
Hopton,10/11/2023 06:10:00,MW,3.7631283
Hopton,10/11/2023 06:15:00,MW,4.362244
Hopton,10/11/2023 06:20:00,MW,4.0555353
Hopton,10/11/2023 06:25:00,MW,3.84521
Hopton,10/11/2023 06:30:00,MW,3.433922
Hopton,10/11/2023 06:35:00,MW,3.0833983
Hopton,10/11/2023 06:40:00,MW,3.2557998
Hopton,10/11/2023 06:45:00,MW,3.1451173
Hopton,10/11/2023 06:50:00,MW,3.089323
Hopton,10/11/2023 06:55:00,MW,2.944311
Hopton,10/11/2023 07:00:00,MW,2.7860782
Hopton,10/11/2023 07:05:00,MW,2.9627528
Hopton,10/11/2023 07:10:00,MW,3.0727384
Hopton,10/11/2023 07:15:00,MW,2.9137459
Hopton,10/11/2023 07:20:00,MW,3.3253045
Hopton,10/11/2023 07:25:00,MW,2.5687282
Hopton,10/11/2023 07:30:00,MW,2.4580317
Hopton,10/11/2023 07:35:00,MW,2.2063782
Hopton,10/11/2023 07:40:00,MW,2.324955
Hopton,10/11/2023 07:45:00,MW,1.984204
Hopton,10/11/2023 07:50:00,MW,1.9478616
Hopton,10/11/2023 07:55:00,MW,1.3154346
Hopton,10/11/2023 08:00:00,MW,1.8374165
Hopton,10/11/2023 08:05:00,MW,2.0731144
Hopton,10/11/2023 08:10:00,MW,2.8565948
Hopton,10/11/2023 08:15:00,MW,2.9835775
Hopton,10/11/2023 08:20:00,MW,3.5677822
Hopton,10/11/2023 08:25:00,MW,2.6997564
Hopton,10/11/2023 08:30:00,MW,2.7129223
Hopton,10/11/2023 08:35:00,MW,2.5300703
Hopton,10/11/2023 08:40:00,MW,2.30582
Hopton,10/11/2023 08:45:00,MW,2.0386648
Hopton,10/11/2023 08:50:00,MW,1.9258811
Hopton,10/11/2023 08:55:00,MW,2.1052368
Hopton,10/11/2023 09:00:00,MW,1.0409244
Hopton,10/11/2023 09:05:00,MW,0.869723
Hopton,10/11/2023 09:10:00,MW,1.6063777
Hopton,10/11/2023 09:15:00,MW,2.1459343
Hopton,10/11/2023 09:20:00,MW,2.4077902
Hopton,10/11/2023 09:25:00,MW,1.9066374
Hopton,10/11/2023 09:30:00,MW,2.2926178
Hopton,10/11/2023 09:35:00,MW,2.0345125
Hopton,10/11/2023 09:40:00,MW,1.788708
Hopton,10/11/2023 09:45:00,MW,1.5976952
Hopton,10/11/2023 09:50:00,MW,1.5266325
Hopton,10/11/2023 09:55:00,MW,1.2231697
Hopton,10/11/2023 10:00:00,MW,1.6633053
Hopton,10/11/2023 10:05:00,MW,1.4975245
Hopton,10/11/2023 10:10:00,MW,1.858408
Hopton,10/11/2023 10:15:00,MW,1.8159634
Hopton,10/11/2023 10:20:00,MW,1.9783328
Hopton,10/11/2023 10:25:00,MW,2.0947492
Hopton,10/11/2023 10:30:00,MW,3.2831538
Hopton,10/11/2023 10:35:00,MW,1.9797504
Hopton,10/11/2023 10:40:00,MW,1.1345761
Hopton,10/11/2023 10:45:00,MW,0.6317708
Hopton,10/11/2023 10:50:00,MW,0.68220264
Hopton,10/11/2023 10:55:00,MW,0.97666323
Hopton,10/11/2023 11:00:00,MW,0.9243568
Hopton,10/11/2023 11:05:00,MW,0.55875117
Hopton,10/11/2023 11:10:00,MW,1.0472275
Hopton,10/11/2023 11:15:00,MW,1.4591193
Hopton,10/11/2023 11:20:00,MW,1.2444352
Hopton,10/11/2023 11:25:00,MW,1.0515845
Hopton,10/11/2023 11:30:00,MW,0.785431
Hopton,10/11/2023 11:35:00,MW,1.3171575
Hopton,10/11/2023 11:40:00,MW,1.5649879
Hopton,10/11/2023 11:45:00,MW,0.9403244
Hopton,10/11/2023 11:50:00,MW,0.5704623
Hopton,10/11/2023 11:55:00,MW,0.39626852
Hopton,10/11/2023 12:00:00,MW,0.38770306
Hopton,10/11/2023 12:05:00,MW,0.6843876
Hopton,10/11/2023 12:10:00,MW,0.5497811
Hopton,10/11/2023 12:15:00,MW,1.0921594
Hopton,10/11/2023 12:20:00,MW,1.0124328
Hopton,10/11/2023 12:25:00,MW,1.9178555
Hopton,10/11/2023 12:30:00,MW,1.6232817
Hopton,10/11/2023 12:35:00,MW,1.271145
Hopton,10/11/2023 12:40:00,MW,0.6429349
Hopton,10/11/2023 12:45:00,MW,0.9866076
Hopton,10/11/2023 12:50:00,MW,1.1863436
Hopton,10/11/2023 12:55:00,MW,1.2834066
Hopton,10/11/2023 13:00:00,MW,1.0017426
Hopton,10/11/2023 13:05:00,MW,1.1247461
Hopton,10/11/2023 13:10:00,MW,1.0706264
Hopton,10/11/2023 13:15:00,MW,1.4346383
Hopton,10/11/2023 13:20:00,MW,1.6645125
Hopton,10/11/2023 13:25:00,MW,1.8019814
Hopton,10/11/2023 13:30:00,MW,1.7500534
Hopton,10/11/2023 13:35:00,MW,1.6090921
Hopton,10/11/2023 13:40:00,MW,1.2684288
Hopton,10/11/2023 13:45:00,MW,1.345497
Hopton,10/11/2023 13:50:00,MW,1.5030025
Hopton,10/11/2023 13:55:00,MW,1.4825245
Hopton,10/11/2023 14:00:00,MW,1.5506824
Hopton,10/11/2023 14:05:00,MW,1.4412516
Hopton,10/11/2023 14:10:00,MW,1.4062406
Hopton,10/11/2023 14:15:00,MW,1.2762144
Hopton,10/11/2023 14:20:00,MW,1.3332173
Hopton,10/11/2023 14:25:00,MW,1.3955333
Hopton,10/11/2023 14:30:00,MW,1.3411353
Hopton,10/11/2023 14:35:00,MW,1.4201035
Hopton,10/11/2023 14:40:00,MW,1.4829248
Hopton,10/11/2023 14:45:00,MW,1.4784398
Hopton,10/11/2023 14:50:00,MW,1.5318877
Hopton,10/11/2023 14:55:00,MW,1.5969787
Hopton,10/11/2023 15:00:00,MW,1.5630633
Hopton,10/11/2023 15:05:00,MW,1.5867767
Hopton,10/11/2023 15:10:00,MW,1.7014059
Hopton,10/11/2023 15:15:00,MW,1.6287156
Hopton,10/11/2023 15:20:00,MW,1.3787942
Hopton,10/11/2023 15:25:00,MW,1.3059069
Hopton,10/11/2023 15:30:00,MW,1.351577
Hopton,10/11/2023 15:35:00,MW,1.2992833
Hopton,10/11/2023 15:40:00,MW,1.0448173
Hopton,10/11/2023 15:45:00,MW,1.1037322
Hopton,10/11/2023 15:50:00,MW,0.8942322
Hopton,10/11/2023 15:55:00,MW,0.87744176
Hopton,10/11/2023 16:00:00,MW,1.0617214
Hopton,10/11/2023 16:05:00,MW,0.9803229
Hopton,10/11/2023 16:10:00,MW,0.87144035
Hopton,10/11/2023 16:15:00,MW,0.5281366
Hopton,10/11/2023 16:20:00,MW,0.7588494
Hopton,10/11/2023 16:25:00,MW,0.8667302
Hopton,10/11/2023 16:30:00,MW,0.79113775
Hopton,10/11/2023 16:35:00,MW,1.0193896
Hopton,10/11/2023 16:40:00,MW,0.6949645
Hopton,10/11/2023 16:45:00,MW,0.2741614
Hopton,10/11/2023 16:50:00,MW,0.2602394
Hopton,10/11/2023 16:55:00,MW,0.2208749
Hopton,10/11/2023 17:00:00,MW,0.48915574
Hopton,10/11/2023 17:05:00,MW,0.7196482
Hopton,10/11/2023 17:10:00,MW,1.1413021
Hopton,10/11/2023 17:15:00,MW,1.1356477
Hopton,10/11/2023 17:20:00,MW,0.8498402
Hopton,10/11/2023 17:25:00,MW,0.6309555
Hopton,10/11/2023 17:30:00,MW,0.21404305
Hopton,10/11/2023 17:35:00,MW,0.28156152
Hopton,10/11/2023 17:40:00,MW,0.36203524
Hopton,10/11/2023 17:45:00,MW,0.16015714
Hopton,10/11/2023 17:50:00,MW,0.3811151
Hopton,10/11/2023 17:55:00,MW,0.2689989
Hopton,10/11/2023 18:00:00,MW,0.4722895
Hopton,10/11/2023 18:05:00,MW,0.41875547
Hopton,10/11/2023 18:10:00,MW,0.5051272
Hopton,10/11/2023 18:15:00,MW,0.27987012
Hopton,10/11/2023 18:20:00,MW,0.7391425
Hopton,10/11/2023 18:25:00,MW,1.0682237
Hopton,10/11/2023 18:30:00,MW,0.7276365
Hopton,10/11/2023 18:35:00,MW,0.55183804
Hopton,10/11/2023 18:40:00,MW,0.673585
Hopton,10/11/2023 18:45:00,MW,0.9167977
Hopton,10/11/2023 18:50:00,MW,1.1592159
Hopton,10/11/2023 18:55:00,MW,1.2590711
Hopton,10/11/2023 19:00:00,MW,0.9676309
Hopton,10/11/2023 19:05:00,MW,0.59168285
Hopton,10/11/2023 19:10:00,MW,0.440206
Hopton,10/11/2023 19:15:00,MW,0.3268762
Hopton,10/11/2023 19:20:00,MW,0.5887377
Hopton,10/11/2023 19:25:00,MW,1.3464807
Hopton,10/11/2023 19:30:00,MW,1.2650185
Hopton,10/11/2023 19:35:00,MW,1.0428807
Hopton,10/11/2023 19:40:00,MW,0.95010537
Hopton,10/11/2023 19:45:00,MW,0.7309418
Hopton,10/11/2023 19:50:00,MW,0.5152803
Hopton,10/11/2023 19:55:00,MW,0.20074303
Hopton,10/11/2023 20:00:00,MW,0.42267495
Hopton,10/11/2023 20:05:00,MW,0.5239714
Hopton,10/11/2023 20:10:00,MW,0.41694465
Hopton,10/11/2023 20:15:00,MW,0.4796069
Hopton,10/11/2023 20:20:00,MW,0.4690139
Hopton,10/11/2023 20:25:00,MW,0.36951762
Hopton,10/11/2023 20:30:00,MW,0.8809368
Hopton,10/11/2023 20:35:00,MW,0.8992638
Hopton,10/11/2023 20:40:00,MW,1.1888547
Hopton,10/11/2023 20:45:00,MW,1.1520667
Hopton,10/11/2023 20:50:00,MW,0.82728004
Hopton,10/11/2023 20:55:00,MW,0.75203073
Hopton,10/11/2023 21:00:00,MW,0.62873584
Hopton,10/11/2023 21:05:00,MW,0.8115859
Hopton,10/11/2023 21:10:00,MW,0.7947435
Hopton,10/11/2023 21:15:00,MW,0.7606117
Hopton,10/11/2023 21:20:00,MW,0.8552958
Hopton,10/11/2023 21:25:00,MW,0.79919416
Hopton,10/11/2023 21:30:00,MW,0.8266059
Hopton,10/11/2023 21:35:00,MW,0.65163344
Hopton,10/11/2023 21:40:00,MW,0.6324675
Hopton,10/11/2023 21:45:00,MW,0.5983525
Hopton,10/11/2023 21:50:00,MW,0.5820783
Hopton,10/11/2023 21:55:00,MW,0.59392977
Hopton,10/11/2023 22:00:00,MW,0.46720052
Hopton,10/11/2023 22:05:00,MW,0.46602017
Hopton,10/11/2023 22:10:00,MW,0.53831995
Hopton,10/11/2023 22:15:00,MW,0.58944124
Hopton,10/11/2023 22:20:00,MW,0.43449143
Hopton,10/11/2023 22:25:00,MW,0.52978295
Hopton,10/11/2023 22:30:00,MW,0.5645875
Hopton,10/11/2023 22:35:00,MW,0.6913161
Hopton,10/11/2023 22:40:00,MW,0.77874064
Hopton,10/11/2023 22:45:00,MW,0.95892704
Hopton,10/11/2023 22:50:00,MW,1.1240731
Hopton,10/11/2023 22:55:00,MW,1.1016866
Hopton,10/11/2023 23:00:00,MW,1.0011684
Hopton,10/11/2023 23:05:00,MW,0.99504316
Hopton,10/11/2023 23:10:00,MW,0.8819066
Hopton,10/11/2023 23:15:00,MW,0.8100545
Hopton,10/11/2023 23:20:00,MW,0.50272954
Hopton,10/11/2023 23:25:00,MW,0.5613662
Hopton,10/11/2023 23:30:00,MW,0.5883821
Hopton,10/11/2023 23:35:00,MW,0.5109952
Hopton,10/11/2023 23:40:00,MW,0.30380195
Hopton,10/11/2023 23:45:00,MW,0.24239628
Hopton,10/11/2023 23:50:00,MW,0.2892565
Hopton,10/11/2023 23:55:00,MW,0.46524674
